When you browse on this site, cookies collect data to enhance your experience and personalize the content and advertising you see.
Visit our Privacy Policy to learn more. By continuing to use the site, you agree to this use of cookies and data.
  • în România
  • Lista ţărilor
  • Pe 7 zile
  • Temperatura apei
  • Hartă satelitară
  • Meteo pe hartă
  • Widget-uri
  • user-avatar
    Intrare

    Meteo pe oră la Innsbruck

    Astăzi, 16 Iunie, Duminică

    Timp Temperatura Precipitaţii Vânt Presiune Umiditate
    00:00 +6°C° 0.3 mm 0 m/s 597 mmHg 96%
    01:00 +6°C° 0.3 mm 0 m/s 597 mmHg 97%
    02:00 +6°C° 0.4 mm 0 m/s 597 mmHg 97%
    03:00 +7°C° 0.4 mm 0 m/s 597 mmHg 97%
    04:00 +8°C° 0.4 mm 1 m/s 598 mmHg 97%
    05:00 +8°C° 0.6 mm 1 m/s 598 mmHg 95%
    06:00 +9°C° 0.6 mm 1 m/s 598 mmHg 94%
    07:00 +8°C° 0.6 mm 2 m/s 599 mmHg 93%
    08:00 +8°C° 0.2 mm 2 m/s 599 mmHg 92%
    09:00 +8°C° 0.2 mm 2 m/s 599 mmHg 91%
    10:00 +8°C° 0.2 mm 2 m/s 599 mmHg 90%
    11:00 +9°C° 0.2 mm 2 m/s 599 mmHg 85%
    12:00 +10°C° 0.2 mm 2 m/s 600 mmHg 80%
    13:00 +12°C° 0.2 mm 2 m/s 601 mmHg 75%
    14:00 +12°C° 0.4 mm 2 m/s 601 mmHg 77%
    15:00 +12°C° 0.4 mm 2 m/s 600 mmHg 79%
    16:00 +12°C° 0.4 mm 2 m/s 600 mmHg 82%
    17:00 +10°C° 0.3 mm 2 m/s 600 mmHg 85%
    18:00 +10°C° 0.3 mm 2 m/s 600 mmHg 89%
    19:00 +9°C° 0.3 mm 2 m/s 599 mmHg 92%
    20:00 +9°C° 0 mm 1 m/s 599 mmHg 94%
    21:00 +8°C° 0 mm 1 m/s 599 mmHg 96%
    22:00 +7°C° 0 mm 1 m/s 599 mmHg 98%
    23:00 +6°C° 0 mm 1 m/s 599 mmHg 97%

    Mâine, 17 Iunie, Luni

    Timp Temperatura Precipitaţii Vânt Presiune Umiditate
    00:00 +6°C° 0 mm 1 m/s 599 mmHg 96%
    01:00 +4°C° 0 mm 0 m/s 598 mmHg 96%
    02:00 +4°C° 0 mm 0 m/s 598 mmHg 95%
    03:00 +3°C° 0 mm 0 m/s 597 mmHg 94%
    04:00 +3°C° 0 mm 0 m/s 597 mmHg 94%
    05:00 +5°C° 0 mm 0 m/s 598 mmHg 89%
    06:00 +7°C° 0 mm 0 m/s 599 mmHg 85%
    07:00 +9°C° 0 mm 0 m/s 600 mmHg 80%
    08:00 +12°C° 0 mm 1 m/s 601 mmHg 71%
    09:00 +14°C° 0 mm 1 m/s 601 mmHg 62%
    10:00 +16°C° 0 mm 1 m/s 602 mmHg 53%
    11:00 +18°C° 0.2 mm 1 m/s 602 mmHg 50%
    12:00 +19°C° 0.2 mm 1 m/s 602 mmHg 47%
    13:00 +20°C° 0.2 mm 1 m/s 602 mmHg 44%
    14:00 +19°C° 0.8 mm 1 m/s 602 mmHg 50%
    15:00 +18°C° 0.8 mm 1 m/s 601 mmHg 55%
    16:00 +18°C° 0.8 mm 1 m/s 600 mmHg 60%
    17:00 +15°C° 1.3 mm 1 m/s 600 mmHg 68%
    18:00 +14°C° 1.3 mm 1 m/s 599 mmHg 76%
    19:00 +12°C° 1.3 mm 0 m/s 599 mmHg 84%
    20:00 +10°C° 0.3 mm 0 m/s 598 mmHg 86%
    21:00 +10°C° 0.3 mm 1 m/s 598 mmHg 87%
    22:00 +8°C° 0.3 mm 1 m/s 597 mmHg 88%
    23:00 +8°C° 0 mm 1 m/s 597 mmHg 87%

    Poimâine, 18 Iunie, Marţi

    Timp Temperatura Precipitaţii Vânt Presiune Umiditate
    00:00 +8°C° 0 mm 1 m/s 597 mmHg 87%
    01:00 +7°C° 0 mm 2 m/s 597 mmHg 86%
    02:00 +7°C° 0 mm 1 m/s 597 mmHg 86%
    03:00 +7°C° 0 mm 1 m/s 596 mmHg 87%
    04:00 +6°C° 0 mm 1 m/s 596 mmHg 87%
    05:00 +8°C° 0 mm 1 m/s 597 mmHg 83%
    06:00 +10°C° 0 mm 1 m/s 598 mmHg 79%
    07:00 +11°C° 0 mm 0 m/s 599 mmHg 75%
    08:00 +14°C° 0.1 mm 1 m/s 600 mmHg 67%
    09:00 +16°C° 0.1 mm 1 m/s 600 mmHg 59%
    10:00 +19°C° 0.1 mm 1 m/s 601 mmHg 51%
    11:00 +19°C° 0.8 mm 1 m/s 601 mmHg 52%
    12:00 +19°C° 0.8 mm 1 m/s 601 mmHg 52%
    13:00 +18°C° 0.8 mm 2 m/s 600 mmHg 53%
    14:00 +17°C° 1.5 mm 2 m/s 600 mmHg 59%
    15:00 +16°C° 1.5 mm 1 m/s 599 mmHg 66%
    16:00 +15°C° 1.5 mm 1 m/s 599 mmHg 73%
    17:00 +14°C° 1.6 mm 1 m/s 598 mmHg 79%
    18:00 +13°C° 1.6 mm 1 m/s 598 mmHg 85%
    19:00 +11°C° 1.6 mm 1 m/s 597 mmHg 92%
    20:00 +10°C° 0.9 mm 1 m/s 597 mmHg 92%
    21:00 +10°C° 0.9 mm 1 m/s 597 mmHg 92%
    22:00 +9°C° 0.9 mm 1 m/s 597 mmHg 93%
    23:00 +9°C° 0 mm 1 m/s 597 mmHg 92%

    19 Iunie, Miercuri

    Timp Temperatura Precipitaţii Vânt Presiune Umiditate
    00:00 +8°C° 0 mm 1 m/s 597 mmHg 91%
    01:00 +8°C° 0 mm 1 m/s 596 mmHg 90%
    02:00 +7°C° 0 mm 1 m/s 596 mmHg 89%
    03:00 +7°C° 0 mm 1 m/s 596 mmHg 89%
    04:00 +7°C° 0 mm 1 m/s 596 mmHg 89%
    05:00 +8°C° 0 mm 1 m/s 596 mmHg 85%
    06:00 +10°C° 0 mm 1 m/s 597 mmHg 82%
    07:00 +12°C° 0 mm 1 m/s 598 mmHg 78%
    08:00 +14°C° 0.2 mm 1 m/s 599 mmHg 69%
    09:00 +16°C° 0.2 mm 1 m/s 600 mmHg 59%
    10:00 +19°C° 0.2 mm 1 m/s 601 mmHg 49%
    11:00 +19°C° 0.3 mm 1 m/s 601 mmHg 45%
    12:00 +19°C° 0.3 mm 2 m/s 601 mmHg 40%
    13:00 +19°C° 0.3 mm 2 m/s 601 mmHg 36%
    14:00 +19°C° 0.1 mm 2 m/s 600 mmHg 39%
    15:00 +18°C° 0.1 mm 2 m/s 600 mmHg 41%
    16:00 +18°C° 0.1 mm 2 m/s 600 mmHg 44%
    17:00 +16°C° 0.4 mm 1 m/s 599 mmHg 54%
    18:00 +15°C° 0.4 mm 1 m/s 599 mmHg 65%
    19:00 +14°C° 0.4 mm 1 m/s 598 mmHg 75%
    20:00 +12°C° 0.2 mm 1 m/s 597 mmHg 78%
    21:00 +10°C° 0.2 mm 1 m/s 597 mmHg 81%
    22:00 +8°C° 0.2 mm 1 m/s 596 mmHg 84%
    23:00 +7°C° 0 mm 1 m/s 596 mmHg 83%

    20 Iunie, Joi

    Timp Temperatura Precipitaţii Vânt Presiune Umiditate
    00:00 +7°C° 0 mm 1 m/s 596 mmHg 82%
    01:00 +7°C° 0 mm 1 m/s 595 mmHg 81%
    02:00 +7°C° 0 mm 1 m/s 595 mmHg 80%
    03:00 +7°C° 0 mm 1 m/s 595 mmHg 79%
    04:00 +6°C° 0 mm 1 m/s 595 mmHg 78%
    05:00 +8°C° 0 mm 0 m/s 596 mmHg 71%
    06:00 +10°C° 0 mm 0 m/s 598 mmHg 64%
    07:00 +13°C° 0 mm 0 m/s 599 mmHg 57%
    08:00 +15°C° 0 mm 1 m/s 600 mmHg 51%
    09:00 +18°C° 0 mm 1 m/s 600 mmHg 45%
    10:00 +19°C° 0 mm 1 m/s 601 mmHg 39%
    11:00 +19°C° 0 mm 2 m/s 601 mmHg 39%
    12:00 +19°C° 0 mm 2 m/s 601 mmHg 38%
    13:00 +19°C° 0 mm 2 m/s 600 mmHg 38%
    14:00 +19°C° 0.3 mm 2 m/s 600 mmHg 44%
    15:00 +18°C° 0.3 mm 2 m/s 600 mmHg 49%
    16:00 +17°C° 0.3 mm 2 m/s 600 mmHg 55%
    17:00 +16°C° 1.2 mm 2 m/s 599 mmHg 66%
    18:00 +14°C° 1.2 mm 1 m/s 599 mmHg 77%
    19:00 +12°C° 1.2 mm 1 m/s 598 mmHg 88%
    20:00 +11°C° 0.5 mm 1 m/s 598 mmHg 90%
    21:00 +10°C° 0.5 mm 1 m/s 597 mmHg 93%
    22:00 +7°C° 0.5 mm 0 m/s 597 mmHg 95%
    23:00 +8°C° 0 mm 1 m/s 597 mmHg 95%

    21 Iunie, Vineri

    Timp Temperatura Precipitaţii Vânt Presiune Umiditate
    00:00 +8°C° 0 mm 1 m/s 597 mmHg 94%
    01:00 +8°C° 0 mm 1 m/s 597 mmHg 94%
    02:00 +8°C° 0.1 mm 1 m/s 597 mmHg 93%
    03:00 +8°C° 0.1 mm 1 m/s 597 mmHg 92%
    04:00 +8°C° 0.1 mm 1 m/s 597 mmHg 91%
    05:00 +9°C° 0 mm 1 m/s 597 mmHg 88%
    06:00 +11°C° 0 mm 1 m/s 598 mmHg 86%
    07:00 +12°C° 0 mm 1 m/s 599 mmHg 83%
    08:00 +14°C° 0 mm 1 m/s 599 mmHg 74%
    09:00 +16°C° 0 mm 1 m/s 600 mmHg 64%
    10:00 +18°C° 0 mm 2 m/s 601 mmHg 54%
    11:00 +18°C° 0.3 mm 2 m/s 601 mmHg 53%
    12:00 +19°C° 0.3 mm 2 m/s 601 mmHg 52%
    13:00 +19°C° 0.3 mm 2 m/s 601 mmHg 51%
    14:00 +19°C° 0.7 mm 2 m/s 600 mmHg 56%
    15:00 +18°C° 0.7 mm 2 m/s 600 mmHg 60%
    16:00 +17°C° 0.7 mm 2 m/s 599 mmHg 65%
    17:00 +16°C° 0.9 mm 2 m/s 599 mmHg 72%
    18:00 +14°C° 0.9 mm 2 m/s 599 mmHg 80%
    19:00 +13°C° 0.9 mm 1 m/s 599 mmHg 87%
    20:00 +12°C° 0.8 mm 1 m/s 598 mmHg 90%
    21:00 +10°C° 0.8 mm 1 m/s 598 mmHg 92%
    22:00 +9°C° 0.8 mm 1 m/s 598 mmHg 95%
    23:00 +8°C° 0.4 mm 1 m/s 598 mmHg 96%
    Arată mai mult